Location: Be?i?
(36.9044°N, 30.1006°E)
Time: 10:07:15
(UTC+00:00)

Cosmos 2263 Rocket - Pass Details

Date: 05 August 2024
Orbit: 822 x 849 km, 71.0° (Epoch: 12 September)

Event Time Altitude Azimuth Distance (km) Brightness Sun altitude
Rises 22:32:09 0° 334° (NNW) 3,396 6.0 -36.1°
Reaches altitude 10° 22:34:36 10° 332° (NNW) 2,462 5.1 -36.0°
Enters shadow 22:37:07 27° 324° (NW) 1,567 3.9 -36.0°
